Home   Weather   Yavatmal   Past weeks

Flag for India Past Weather in Yavatmal, Maharashtra, India — Yesterday and Last 2 Weeks

Now
82 °F

Broken clouds.


Feels Like: 91 °F
Forecast: 75 / 84 °F
Wind: 3 mph from Northeast

Location: Nagpur Sonegaon

Current Time: Sep 26, 2016 at 11:02:26 AM

Latest Report: Sep 26, 2016 at 10:00 AM


Visibility: 2 mi

Pressure: 29.77 "Hg

Humidity: 84%

Dew Point: 77 °F

Location of YavatmalLocation

Past Weather in Yavatmal — Graph

°F

Yavatmal Temperature Yesterday

Maximum temperature yesterday: 88 °F (at 11:00 AM)
Minimum temperature yesterday: 77 °F (at 9:00 AM)
Average temperature yesterday: 80 °F

High & Low Weather Summary for the Past Weeks

 TemperatureHumidityPressure
High95 °F (Sep 20, 1:30 PM)100% (Sep 25, 9:00 AM)29.83 "Hg (Sep 25, 9:00 AM)
Low75 °F (Sep 13, 6:00 AM)56% (Sep 20, 1:30 PM)29.53 "Hg (Sep 24, 3:00 PM)
Average83 °F79%29.70 "Hg
* Reported Sep 11 9:30 AM — Sep 26 10:00 AM, Yavatmal, Weather by CustomWeather, © 2016

Note: Actual official high and low records may vary slightly from our data, if they occured in-between our weather recording intervals... More about our weather records

Advertising

Yavatmal Weather History for the Previous 24 Hours

Scroll right to see more
 ConditionsComfort  
Time TempWeatherWind HumidityBarometerVisibility
10:00 AM
Mon, Sep 26
82 °FBroken clouds.3 mph84%29.77 "Hg2 mi
9:30 AM82 °FScattered clouds.2 mph84%29.77 "Hg2 mi
8:30 AM81 °FScattered clouds.2 mph89%29.74 "Hg2 mi
8:00 AM79 °FPartly sunny.2 mph89%29.74 "Hg2 mi
7:30 AM79 °FPartly sunny.No wind89%29.74 "Hg2 mi
7:00 AM77 °FPartly sunny.No wind94%29.71 "Hg1 mi
6:30 AM77 °FPassing clouds.No wind94%29.71 "Hg1 mi
6:00 AM77 °FPartly cloudy.3 mph94%29.71 "Hg1 mi
5:30 AM77 °FPartly cloudy.No wind94%29.68 "Hg1 mi
5:00 AM77 °FPartly cloudy.No wind94%29.68 "Hg1 mi
4:30 AM77 °FPartly cloudy.No wind94%29.68 "Hg1 mi
3:30 AM79 °FMostly cloudy.No wind89%29.68 "Hg1 mi
3:00 AM79 °FMostly cloudy.No wind89%29.68 "Hg1 mi
2:00 AM79 °FMostly cloudy.2 mph89%29.68 "Hg1 mi
1:30 AM77 °FMostly cloudy.No wind94%29.68 "Hg1 mi
1:00 AM77 °FMostly cloudy.No wind94%29.68 "Hg1 mi
12:30 AM77 °FMostly cloudy.2 mph94%29.68 "Hg1 mi
12:00 AM79 °FMostly cloudy.2 mph89%29.71 "Hg1 mi
11:30 PM
Sun, Sep 25
79 °FMostly cloudy.No wind89%29.71 "Hg1 mi
11:00 PM79 °FMostly cloudy.No wind89%29.71 "Hg1 mi
10:30 PM79 °FLight rain. Mostly cloudy.No wind94%29.71 "Hg1 mi
10:00 PM79 °FLight rain. Mostly cloudy.No wind94%29.71 "Hg1 mi
9:30 PM79 °FLight rain. Mostly cloudy.No wind94%29.74 "Hg1 mi
9:00 PM79 °FLight rain. Mostly cloudy.No wind94%29.71 "Hg1 mi
8:30 PM79 °FLight rain. Mostly cloudy.No wind94%29.71 "Hg1 mi
8:00 PM79 °FLight rain. Mostly cloudy.No wind94%29.68 "Hg1 mi
7:30 PM79 °FLight rain. Mostly cloudy.No wind94%29.68 "Hg1 mi
7:00 PM79 °FLight rain. Mostly cloudy.No wind94%29.65 "Hg1 mi
6:30 PM79 °FLight rain. More clouds than sun.No wind94%29.65 "Hg1 mi
6:00 PM79 °FLight rain. More clouds than sun.2 mph89%29.65 "Hg1 mi
5:30 PM79 °FLight rain. More clouds than sun.3 mph89%29.65 "Hg1 mi
5:00 PM79 °FLight rain. More clouds than sun.2 mph89%29.62 "Hg1 mi
4:30 PM79 °FThunderstorms. Cloudy.No wind89%29.62 "Hg1 mi
4:00 PM79 °FThunderstorms. Cloudy.6 mph94%29.62 "Hg1 mi
3:30 PM79 °FThunderstorms. More clouds than sun.2 mph89%29.62 "Hg1 mi
3:00 PM81 °FThunderstorms. More clouds than sun.8 mph89%29.62 "Hg1 mi
2:30 PM82 °FThunderstorms. Broken clouds.7 mph79%29.62 "Hg1 mi
2:00 PM84 °FScattered clouds.10 mph79%29.62 "Hg1 mi
1:30 PM84 °FScattered showers. Scattered clouds.9 mph79%29.62 "Hg1 mi
1:00 PM86 °FBroken clouds.8 mph75%29.62 "Hg2 mi
11:30 AM86 °FBroken clouds.5 mph75%29.68 "Hg1 mi
11:00 AM88 °FBroken clouds.3 mph70%29.68 "Hg1 mi
Weather by CustomWeather, © 2016

See weather overviewHow to use our weather pages